Rochester, NY

4:41 PM EDT on October 15, 2019 (GMT -0400)
Greater Rochester International

Weather History for KROC - September, 2019

Change the Weather History Date:

Monday, September 16, 2019

  Actual Average Record
Temperature  
Mean Temperature 62 °F 62 °F  
Max Temperature 72 °F 72 °F 97 °F (1939)
Min Temperature 52 °F 52 °F 34 °F (1964)
Degree Days  
Heating Degree Days 3 5  
Month to date heating degree days 29 48  
Since 1 July heating degree days 34 82  
Cooling Degree Days 0 1  
Month to date cooling degree days 24 38  
Year to date cooling degree days 581 522  
Growing Degree Days 12 (Base 50)    
Moisture  
Dew Point 53 °F    
Average Humidity 73    
Maximum Humidity 97    
Minimum Humidity 47    
Precipitation  
Precipitation T in 0.12 in 3.08 in (2005)
Month to date precipitation 2.00 1.78  
Year to date precipitation 22.85 24.38  
Snow  
Snow 0.00 in 0.00 in 0.00 in ()
Month to date snowfall 0.0 0.0  
Since 1 July snowfall 0.0 0.0  
Since 1 September snowfall 0.0 0.0  
Snow Depth 0.00 in    
Sea Level Pressure  
Sea Level Pressure 30.13 in    
Wind  
Wind Speed 5 mph ()    
Max Wind Speed 15 mph    
Max Gust Speed 18 mph    
Visibility 10.0 miles    
Events      
T = Trace of Precipitation, MM = Missing Value Source: Averaged Metar Reports

Daily Weather History Graph

Daily Weather History Graph

Search for Another Location

Airport or City:

Astronomy

Sep. 16, 2019 Rise Set
Actual Time 6:51 AM EDT 7:19 PM EDT
Civil Twilight 6:22 AM EDT 7:47 PM EDT
Nautical Twilight 5:48 AM EDT 8:21 PM EDT
Astronomical Twilight 5:14 AM EDT 8:55 PM EDT
Moon 8:50 PM EDT (9/16) 8:58 AM EDT (9/16)
Length of Visible Light 13h 25m
Length of Day
12h 28m
Waning Gibbous, 94% of the Moon is Illuminated
Sep 16
Waning Gibbous
Sep 21
Last Quarter
Sep 28
New
Oct 5
First Quarter
Oct 13
Full

Hourly Weather History & Observations

Time (EDT) Temp. Dew Point Humidity Pressure Visibility Wind Dir Wind Speed Gust Speed Precip Events Conditions
12:54 AM 61.0 °F 57.9 °F 90% 30.12 in 10.0 mi East 3.5 mph - N/A   Overcast
1:54 AM 61.0 °F 59.0 °F 93% 30.12 in 10.0 mi ENE 3.5 mph - N/A   Overcast
2:54 AM 61.0 °F 57.9 °F 90% 30.11 in 10.0 mi ESE 4.6 mph - N/A   Overcast
3:54 AM 61.0 °F 57.9 °F 90% 30.11 in 10.0 mi East 6.9 mph - N/A   Overcast
4:54 AM 61.0 °F 57.0 °F 87% 30.11 in 10.0 mi ESE 4.6 mph - N/A   Overcast
5:54 AM 61.0 °F 57.0 °F 87% 30.11 in 10.0 mi Calm Calm - N/A   Overcast
6:54 AM 62.1 °F 57.0 °F 84% 30.13 in 10.0 mi ENE 4.6 mph - N/A   Overcast
7:54 AM 62.1 °F 57.9 °F 86% 30.14 in 10.0 mi ESE 8.1 mph - N/A   Overcast
8:37 AM 62.1 °F 57.9 °F 86% 30.13 in 10.0 mi East 8.1 mph - 0.00 in   Overcast
8:54 AM 62.1 °F 57.9 °F 86% 30.14 in 10.0 mi East 8.1 mph - 0.00 in   Overcast
9:54 AM 63.0 °F 57.0 °F 81% 30.15 in 10.0 mi ESE 8.1 mph - N/A   Mostly Cloudy
10:54 AM 64.0 °F 55.0 °F 73% 30.14 in 10.0 mi East 11.5 mph - N/A   Mostly Cloudy
11:54 AM 66.9 °F 51.1 °F 57% 30.13 in 10.0 mi SE 12.7 mph - N/A   Scattered Clouds
12:54 PM 68.0 °F 53.1 °F 59% 30.12 in 10.0 mi SSE 5.8 mph - N/A   Scattered Clouds
1:54 PM 71.1 °F 53.1 °F 53% 30.12 in 10.0 mi ENE 6.9 mph - N/A   Scattered Clouds
2:54 PM 71.1 °F 52.0 °F 51% 30.11 in 10.0 mi NNE 10.4 mph - N/A   Scattered Clouds
4:54 PM 69.1 °F 50.0 °F 51% 30.11 in 10.0 mi NE 11.5 mph - N/A   Mostly Cloudy
5:54 PM 66.9 °F 48.0 °F 51% 30.11 in 10.0 mi ENE 11.5 mph - N/A   Mostly Cloudy
6:54 PM 64.9 °F 46.0 °F 50% 30.12 in 10.0 mi ENE 6.9 mph - N/A   Mostly Cloudy
7:54 PM 62.1 °F 46.9 °F 58% 30.13 in 10.0 mi ENE 5.8 mph - N/A   Mostly Cloudy
8:54 PM 61.0 °F 46.0 °F 58% 30.14 in 10.0 mi ENE 4.6 mph - N/A   Mostly Cloudy
9:54 PM 59.0 °F 48.0 °F 67% 30.14 in 10.0 mi Calm Calm - N/A   Partly Cloudy
10:54 PM 55.0 °F 50.0 °F 83% 30.16 in 10.0 mi SW 3.5 mph - N/A   Partly Cloudy
11:54 PM 55.0 °F 50.0 °F 83% 30.17 in 10.0 mi Calm Calm - N/A   Mostly Cloudy